Terminal Aerodrome Forecast
Issued by NWS

Home | Current Version | Previous Version | Text Only | Print | Product List | Glossary On
Versions: 1 2 3 4 5 6 7 8 9 10 11 12 13 14 15 16 17 18 19 20 21 22 23 24 25 26 27 28 29 30 31 32 33 34 35 36 37 38 39 40 41 42 43 44 45 46 47 48 49 50
000
FTUS41 KCTP 221847 AAA
TAFUNV
TAF AMD
KUNV 221847Z 2219/2318 27013G17KT P6SM BKN035 OVC045
     FM222300 29007KT P6SM BKN045
     FM230500 31005KT P6SM SKC
     FM230800 VRB02KT P6SM VCFG SCT008
     FM231300 VRB03KT P6SM FEW060=

USA.gov is the U.S. government's official web portal to all federal, state and local government web resources and services.